sat.trackr.live / text

‹ back to catalog

YAOGAN-31 04B

NORAD 47856 · 2021-020C

PAYLOAD ACTIVE UNKNOWN

§ Identity

Operator
Country
PRC
Launch date
2021-03-13
Launch site
JSC
Launch vehicle
Mass (kg)
RCS (m²)

External: N2YO · Heavens-Above · Gunter

§ Orbital elements

Epoch: 2026-05-25T04:38:23.637696Z

Period
107.03 min
Inclination
63.4065°
Eccentricity
0.0172705
Mean motion
13.45446436 rev/d
Perigee alt
960.1 km
Apogee alt
1,218.0 km
Semi-major
7,467.2 km
B*
-2.2873e-5
RAAN
317.8728°
Arg perigee
0.5318°
Mean anomaly
359.5861°
Rev number
25,531

§ Raw data

YAOGAN-31 04B1 47856U 21020C   26145.19332914 -.00000105  00000+0 -22873-4 0  99982 47856  63.4065 317.8728 0172705   0.5318 359.5861 13.45446436255314

JSON: /api/v1/satellites/47856 · /tle

For live sub-satellite position, see the globe view (requires WebGL).

§ Visibility from observer

Set your observer location to see the next 7 days of passes ≥ 10°. The values pass through the URL so the page stays shareable.

No JS? Fill the form by hand. The geolocation button needs JavaScript.